Location: Hodgeman County Ambulance
(38.0844°N, 99.8949°W)
Time: 00:13:45
(UTC+00:00)

Uosat 12 SS-18 rocket - Pass Details

Date: 27 October 2020
Orbit: 600 x 1384 km, 64.6° (Epoch: 04 December)

Event Time Altitude Azimuth Distance (km) Brightness Sun altitude
Rises 12:25:21 0° 206° (SSW) 3,247 7.6 -7.6°
Reaches altitude 10° 12:27:54 10° 206° (SSW) 2,220 6.8 -7.1°
Maximum altitude 12:32:50 79° 119° (ESE) 670 4.4 -6.2°
Drops below altitude 10° 12:37:12 10° 34° (NNE) 1,975 6.9 -5.3°
Sets 12:39:22 0° 33° (NNE) 2,859 7.8 -4.9°
